User: anonymous   Login
Location: Unspecified
(0.0000°N, 0.0000°E)
Time: 20:11:31
(UTC+00:00)
Language:

STARLINK-35242 - Orbit

View from above orbital plane
View from above orbital plane
View from above satellite
View from above satellite

Ground track
Ground track

The orbit is defined by the following mean orbital elements,

1 65493U          26144.82781691 +.00000000 +00000-0 +84058-3 0 00007
2 65493  53.1602 276.1816 0001268  86.3941 273.7207 15.34386064    03
Epoch (UTC): 24 May 2026 19:52:03
Eccentricity: 0.0001268
inclination: 53.1602°
perigee height: 462 km
apogee height: 464 km
right ascension of ascending node: 276.1816°
argument of perigee: 86.3941°
revolutions per day: 15.34386064
mean anomaly at epoch: 273.7207°

The dashed part of the orbit path shows where the satellite is in the earth's shadow,  

DLR